Content
SEND FEEDBACK

Daily
Averages
Monthly
Summary
Switzerland

GENEVA, SWITZERLAND


Home > Europe > Switzerland
Elevation: 1364 feet     Latitude: 46 15N     Longitude: 006 08E

WEATHER
 
SELECT A DAY
Number of Records: 317,191;   Date Range: 7/1/96 - 12/18/14
 
SHARE

PRINT THIS DATA

[ ← Previous Day ]
WEATHER ALMANAC - APRIL 20, 2013
[ Next Day → ]
[ °C ]   °F
Weather ElementAverageHighLow
Temperature43.4 °F47 °F (3:00 pm)37.4 °F (5:50 am)
Dewpoint37.5 °F41 °F (7:20 pm)35 °F (6:00 am)
Humidity77.9 %93 % (3:50 am)58 % (2:00 pm)
Barometer30.09 in30.27 in (1:00 am)30.04 in (7:50 am)
Wind Speed16.9 mph27.6 mph (12:50 pm)
Wind Gust42.6 mph (12:50 pm)
Weather ElementAverage
Visibility7.9 mi
Wind DirectionNNE (37.6 °)

Weather ElementTotal
Precipitation---
Heating Degree Days22.8 (Base 65)
Averaged from 66 records on April 20, 2013
WEATHER CONDITIONS BREAKOUT
WIND DIRECTION BREAKOUT
WEATHER BY HOUR - APRIL 20, 2013
[ °C ]   °F
Local TimeTemperatureDewpointHumidityBarometerVisibilityWind DirectionWind SpeedGust SpeedPrecipitationEventsConditions
12:20 AM42.8 °F37.4 °F81 %30.24 in6.2 miNE (40°)6.9 mphMostly Cloudy
12:50 AM41.0 °F37.4 °F87 %30.21 in6.2 miENE (70°)9.2 mphRainRain
1:00 AM42.0 °F36.0 °F71 %30.27 inNE (50°)9.2 mph
1:20 AM41.0 °F35.6 °F81 %30.21 in6.2 miNE (40°)10.4 mphRainLight Rain
1:50 AM41.0 °F35.6 °F81 %30.21 in6.2 miNNE (20°)5.8 mphMostly Cloudy
2:00 AM42.0 °F36.0 °F72 %30.25 in16.0 miNorth (10°)5.8 mphRainLight Rain
2:20 AM41.0 °F35.6 °F81 %30.21 in6.2 miNNE (30°)5.8 mphRainLight Rain
2:50 AM41.0 °F37.4 °F87 %30.18 in6.2 miNNE (30°)8.1 mphRainLight Rain
3:00 AM41.0 °F37.0 °F81 %30.22 inNorth (10°)6.9 mph
3:50 AM39.2 °F37.4 °F93 %30.15 in6.2 miNE (40°)20.7 mphRainLight Rain
4:00 AM40.0 °F36.0 °F78 %30.21 inNNE (30°)17.3 mph
4:20 AM39.2 °F35.6 °F87 %30.15 in6.2 miNE (40°)18.4 mphRainLight Rain
4:50 AM39.2 °F35.6 °F87 %30.12 in6.2 miNE (40°)18.4 mphRainLight Rain
5:20 AM39.2 °F35.6 °F87 %30.12 in5.6 miNNE (30°)16.1 mphRainLight Rain
5:50 AM37.4 °F35.6 °F93 %30.09 in6.2 miNNE (20°)13.8 mphRainLight Rain
6:00 AM39.0 °F35.0 °F81 %30.16 inNNE (20°)12.7 mph
6:20 AM37.4 °F35.6 °F93 %30.09 in5.0 miNNE (30°)10.4 mphRainRain
6:50 AM39.2 °F35.6 °F87 %30.06 in4.3 miNE (40°)10.4 mphRainRain
7:00 AM40.0 °F35.0 °F78 %30.12 inNNE (20°)16.1 mph
7:20 AM39.2 °F35.6 °F87 %30.06 in6.2 miNE (40°)13.8 mphRainLight Rain
7:50 AM39.2 °F35.6 °F87 %30.04 in6.2 miNE (40°)17.3 mphRainLight Rain
8:00 AM40.0 °F36.0 °F78 %30.09 in6.0 miNE (40°)19.6 mphRainLight Rain
8:20 AM39.2 °F37.4 °F93 %30.04 in6.2 miNE (40°)16.1 mphMostly Cloudy
8:50 AM41.0 °F35.6 °F81 %30.04 in6.2 miNE (40°)17.3 mphMostly Cloudy
9:00 AM40.0 °F36.0 °F82 %30.09 inNE (40°)17.3 mph
9:20 AM41.0 °F35.6 °F81 %30.04 in6.2 miNE (40°)12.7 mphMostly Cloudy
9:50 AM42.8 °F35.6 °F76 %30.04 in6.2 miNNE (30°)19.6 mphMostly Cloudy
10:00 AM42.0 °F35.0 °F68 %30.08 inNNE (30°)23.0 mph
10:20 AM42.8 °F35.6 °F76 %30.04 in6.2 miNE (40°)21.9 mph34.5 mphMostly Cloudy
10:50 AM42.8 °F35.6 °F76 %30.04 in6.2 miNE (40°)24.2 mph36.8 mphMostly Cloudy
11:20 AM42.8 °F35.6 °F76 %30.04 in6.2 miNE (40°)25.3 mph39.1 mphMostly Cloudy
11:50 AM42.8 °F37.4 °F81 %30.04 in6.2 miNE (40°)25.3 mph38.0 mphMostly Cloudy
12:00 PM44.0 °F35.0 °F62 %30.07 inNE (40°)26.5 mph
12:20 PM44.6 °F35.6 °F71 %30.04 in6.2 miNE (40°)23.0 mph41.4 mphMostly Cloudy
12:50 PM44.6 °F37.4 °F76 %30.04 in6.2 miNE (40°)27.6 mph42.6 mphMostly Cloudy
1:00 PM45.0 °F36.0 °F62 %30.06 inNE (40°)25.3 mph
1:20 PM44.6 °F37.4 °F76 %30.04 in6.2 miNE (40°)26.5 mphMostly Cloudy
1:50 PM46.4 °F37.4 °F71 %30.04 in6.2 miNE (40°)25.3 mph39.1 mphMostly Cloudy
2:00 PM46.0 °F36.0 °F58 %30.06 in47.0 miNE (40°)23.0 mphPartly Cloudy
2:20 PM46.4 °F37.4 °F71 %30.04 in6.2 miNE (40°)24.2 mphMostly Cloudy
2:50 PM46.4 °F37.4 °F71 %30.04 in6.2 miNE (40°)25.3 mph38.0 mphMostly Cloudy
3:00 PM47.0 °F38.0 °F60 %30.06 inNE (40°)25.3 mph
3:20 PM46.4 °F37.4 °F71 %30.04 in6.2 miNE (40°)23.0 mph34.5 mphMostly Cloudy
3:50 PM46.4 °F39.2 °F76 %30.04 in6.2 miNE (40°)20.7 mphMostly Cloudy
4:00 PM46.0 °F38.0 °F64 %30.06 inNNE (30°)21.9 mph
4:20 PM46.4 °F39.2 °F76 %30.04 in6.2 miNNE (30°)17.3 mph31.1 mphMostly Cloudy
4:50 PM46.4 °F39.2 °F76 %30.04 in6.2 miNE (40°)19.6 mph31.1 mphMostly Cloudy
5:20 PM46.4 °F39.2 °F76 %30.04 in6.2 miNE (40°)20.7 mphMostly Cloudy
5:50 PM46.4 °F39.2 °F76 %30.04 in6.2 miNE (40°)19.6 mphMostly Cloudy
6:00 PM46.0 °F38.0 °F66 %30.06 inNE (40°)19.6 mph
6:20 PM46.4 °F39.2 °F76 %30.04 in6.2 miNNE (30°)18.4 mph29.9 mphMostly Cloudy
6:50 PM46.4 °F39.2 °F76 %30.04 in6.2 miNE (40°)16.1 mphMostly Cloudy
7:00 PM46.0 °F39.0 °F70 %30.06 inNE (40°)16.1 mph
7:20 PM46.4 °F41.0 °F81 %30.04 in6.2 miNNE (30°)17.3 mphMostly Cloudy
7:50 PM46.4 °F41.0 °F81 %30.04 in6.2 miNE (40°)16.1 mphMostly Cloudy
8:00 PM46.0 °F40.0 °F72 %30.07 in44.0 miNE (40°)16.1 mphMostly Cloudy
8:20 PM46.4 °F41.0 °F81 %30.04 in6.2 miNE (40°)13.8 mphMostly Cloudy
8:50 PM46.4 °F41.0 °F81 %30.06 in6.2 miNE (50°)16.1 mphMostly Cloudy
9:00 PM46.0 °F40.0 °F74 %30.09 inNE (40°)15.0 mph
9:20 PM46.4 °F41.0 °F81 %30.06 in6.2 miNE (40°)13.8 mphMostly Cloudy
9:50 PM46.4 °F41.0 °F81 %30.06 in6.2 miNE (40°)12.7 mphOvercast
10:00 PM46.0 °F41.0 °F75 %30.09 inNE (40°)10.4 mph
10:20 PM46.4 °F41.0 °F81 %30.06 in6.2 miNE (50°)10.4 mphOvercast
10:50 PM46.4 °F41.0 °F81 %30.06 in6.2 miNE (50°)11.5 mphOvercast
11:20 PM46.4 °F41.0 °F81 %30.06 in6.2 miNE (50°)11.5 mphOvercast
11:50 PM46.4 °F41.0 °F81 %30.06 in6.2 miNE (50°)8.1 mphOvercast
Hourly data recorded from LSGG, located miles away from Geneva, Switzerland







STORIES FROM OUR PARTNERS